Year,Month,Day,Hour,Minute,Value (Times are PST for temperature in C)
2009,06,11,00,00,12.00
2009,06,11,00,01,12.00
2009,06,11,00,02,12.00
2009,06,11,00,03,12.00
2009,06,11,00,04,12.00
2009,06,11,00,05,12.00
2009,06,11,00,06,12.00
2009,06,11,00,07,12.00
2009,06,11,00,08,12.00
2009,06,11,00,09,12.00
2009,06,11,00,10,12.00
2009,06,11,00,11,12.00
2009,06,11,00,12,12.00
2009,06,11,00,13,12.00
2009,06,11,00,14,12.00
2009,06,11,00,15,12.00
2009,06,11,00,16,12.00
2009,06,11,00,17,12.00
2009,06,11,00,18,12.00
2009,06,11,00,19,12.00
2009,06,11,00,20,11.90
2009,06,11,00,21,11.90
2009,06,11,00,22,11.90
2009,06,11,00,23,11.90
2009,06,11,00,24,11.90
2009,06,11,00,25,11.90
2009,06,11,00,26,11.90
2009,06,11,00,27,11.90
2009,06,11,00,28,11.90
2009,06,11,00,29,11.90
2009,06,11,00,30,11.90
2009,06,11,00,31,11.90
2009,06,11,00,32,11.90
2009,06,11,00,33,11.90
2009,06,11,00,34,11.90
2009,06,11,00,35,11.90
2009,06,11,00,36,11.90
2009,06,11,00,37,11.90
2009,06,11,00,38,11.90
2009,06,11,00,39,11.90
2009,06,11,00,40,11.90
2009,06,11,00,41,11.90
2009,06,11,00,42,11.90
2009,06,11,00,43,11.90
2009,06,11,00,44,11.90
2009,06,11,00,45,11.90
2009,06,11,00,46,11.80
2009,06,11,00,47,11.80
2009,06,11,00,48,11.80
2009,06,11,00,49,11.80
2009,06,11,00,50,11.80
2009,06,11,00,51,11.80
2009,06,11,00,52,11.80
2009,06,11,00,53,11.80
2009,06,11,00,54,11.80
2009,06,11,00,55,11.80
2009,06,11,00,56,11.80
2009,06,11,00,57,11.80
2009,06,11,00,58,11.80
2009,06,11,00,59,11.80
2009,06,11,01,00,11.80
2009,06,11,01,01,11.80
2009,06,11,01,02,11.80
2009,06,11,01,03,11.80
2009,06,11,01,04,11.80
2009,06,11,01,05,11.80
2009,06,11,01,06,11.80
2009,06,11,01,07,11.80
2009,06,11,01,08,11.80
2009,06,11,01,09,11.80
2009,06,11,01,10,11.80
2009,06,11,01,11,11.80
2009,06,11,01,12,11.80
2009,06,11,01,13,11.80
2009,06,11,01,14,11.80
2009,06,11,01,15,11.80
2009,06,11,01,16,11.80
2009,06,11,01,17,11.80
2009,06,11,01,18,11.80
2009,06,11,01,19,11.80
2009,06,11,01,20,11.80
2009,06,11,01,21,11.80
2009,06,11,01,22,11.80
2009,06,11,01,23,11.80
2009,06,11,01,24,11.80
2009,06,11,01,25,11.80
2009,06,11,01,26,11.80
2009,06,11,01,27,11.80
2009,06,11,01,28,11.80
2009,06,11,01,29,11.80
2009,06,11,01,30,11.80
2009,06,11,01,31,11.80
2009,06,11,01,32,11.80
2009,06,11,01,33,11.80
2009,06,11,01,34,11.80
2009,06,11,01,35,11.70
2009,06,11,01,36,11.70
2009,06,11,01,37,11.70
2009,06,11,01,38,11.70
2009,06,11,01,39,11.70
2009,06,11,01,40,11.70
2009,06,11,01,41,11.70
2009,06,11,01,42,11.70
2009,06,11,01,43,11.70
2009,06,11,01,44,11.70
2009,06,11,01,45,11.70
2009,06,11,01,46,11.70
2009,06,11,01,47,11.70
2009,06,11,01,48,11.70
2009,06,11,01,49,11.70
2009,06,11,01,50,11.70
2009,06,11,01,51,11.70
2009,06,11,01,52,11.70
2009,06,11,01,53,11.70
2009,06,11,01,54,11.70
2009,06,11,01,55,11.70
2009,06,11,01,56,11.70
2009,06,11,01,57,11.70
2009,06,11,01,58,11.70
2009,06,11,01,59,11.70
2009,06,11,02,00,11.70
2009,06,11,02,01,11.70
2009,06,11,02,02,11.70
2009,06,11,02,03,11.70
2009,06,11,02,04,11.70
2009,06,11,02,05,11.70
2009,06,11,02,06,11.60
2009,06,11,02,07,11.60
2009,06,11,02,08,11.60
2009,06,11,02,09,11.60
2009,06,11,02,10,11.60
2009,06,11,02,11,11.60
2009,06,11,02,12,11.60
2009,06,11,02,13,11.70
2009,06,11,02,14,11.70
2009,06,11,02,15,11.70
2009,06,11,02,16,11.70
2009,06,11,02,17,11.70
2009,06,11,02,18,11.70
2009,06,11,02,19,11.60
2009,06,11,02,20,11.70
2009,06,11,02,21,11.70
2009,06,11,02,22,11.70
2009,06,11,02,23,11.70
2009,06,11,02,24,11.70
2009,06,11,02,25,11.70
2009,06,11,02,26,11.70
2009,06,11,02,27,11.70
2009,06,11,02,28,11.60
2009,06,11,02,29,11.60
2009,06,11,02,30,11.60
2009,06,11,02,31,11.60
2009,06,11,02,32,11.60
2009,06,11,02,33,11.60
2009,06,11,02,34,11.60
2009,06,11,02,35,11.60
2009,06,11,02,36,11.60
2009,06,11,02,37,11.60
2009,06,11,02,38,11.60
2009,06,11,02,39,11.60
2009,06,11,02,40,11.60
2009,06,11,02,41,11.60
2009,06,11,02,42,11.60
2009,06,11,02,43,11.60
2009,06,11,02,44,11.60
2009,06,11,02,45,11.60
2009,06,11,02,46,11.60
2009,06,11,02,47,11.60
2009,06,11,02,48,11.60
2009,06,11,02,49,11.60
2009,06,11,02,50,11.60
2009,06,11,02,51,11.60
2009,06,11,02,52,11.60
2009,06,11,02,53,11.60
2009,06,11,02,54,11.60
2009,06,11,02,55,11.60
2009,06,11,02,56,11.60
2009,06,11,02,57,11.60
2009,06,11,02,58,11.60
2009,06,11,02,59,11.60
2009,06,11,03,00,11.60
2009,06,11,03,01,11.60
2009,06,11,03,02,11.60
2009,06,11,03,03,11.60
2009,06,11,03,04,11.60
2009,06,11,03,05,11.70
2009,06,11,03,06,11.70
2009,06,11,03,07,11.70
2009,06,11,03,08,11.70
2009,06,11,03,09,11.70
2009,06,11,03,10,11.70
2009,06,11,03,11,11.70
2009,06,11,03,12,11.70
2009,06,11,03,13,11.70
2009,06,11,03,14,11.70
2009,06,11,03,15,11.70
2009,06,11,03,16,11.70
2009,06,11,03,17,11.60
2009,06,11,03,18,11.60
2009,06,11,03,19,11.60
2009,06,11,03,20,11.60
2009,06,11,03,21,11.60
2009,06,11,03,22,11.60
2009,06,11,03,23,11.60
2009,06,11,03,24,11.60
2009,06,11,03,25,11.60
2009,06,11,03,26,11.60
2009,06,11,03,27,11.60
2009,06,11,03,28,11.60
2009,06,11,03,29,11.60
2009,06,11,03,30,11.60
2009,06,11,03,31,11.60
2009,06,11,03,32,11.60
2009,06,11,03,33,11.60
2009,06,11,03,34,11.60
2009,06,11,03,35,11.60
2009,06,11,03,36,11.60
2009,06,11,03,37,11.60
2009,06,11,03,38,11.60
2009,06,11,03,39,11.60
2009,06,11,03,40,11.60
2009,06,11,03,41,11.60
2009,06,11,03,42,11.60
2009,06,11,03,43,11.60
2009,06,11,03,44,11.60
2009,06,11,03,45,11.60
2009,06,11,03,46,11.60
2009,06,11,03,47,11.60
2009,06,11,03,48,11.60
2009,06,11,03,49,11.60
2009,06,11,03,50,11.60
2009,06,11,03,51,11.60
2009,06,11,03,52,11.60
2009,06,11,03,53,11.60
2009,06,11,03,54,11.60
2009,06,11,03,55,11.60
2009,06,11,03,56,11.60
2009,06,11,03,57,11.60
2009,06,11,03,58,11.60
2009,06,11,03,59,11.60
2009,06,11,04,00,11.60
2009,06,11,04,01,11.60
2009,06,11,04,02,11.60
2009,06,11,04,03,11.60
2009,06,11,04,04,11.60
2009,06,11,04,05,11.60
2009,06,11,04,06,11.60
2009,06,11,04,07,11.60
2009,06,11,04,08,11.60
2009,06,11,04,09,11.60
2009,06,11,04,10,11.60
2009,06,11,04,11,11.60
2009,06,11,04,12,11.60
2009,06,11,04,13,11.60
2009,06,11,04,14,11.60
2009,06,11,04,15,11.60
2009,06,11,04,16,11.60
2009,06,11,04,17,11.60
2009,06,11,04,18,11.60
2009,06,11,04,19,11.60
2009,06,11,04,20,11.60
2009,06,11,04,21,11.60
2009,06,11,04,22,11.60
2009,06,11,04,23,11.60
2009,06,11,04,24,11.60
2009,06,11,04,25,11.60
2009,06,11,04,26,11.60
2009,06,11,04,27,11.60
2009,06,11,04,28,11.60
2009,06,11,04,29,11.60
2009,06,11,04,30,11.60
2009,06,11,04,31,11.60
2009,06,11,04,32,11.60
2009,06,11,04,33,11.60
2009,06,11,04,34,11.60
2009,06,11,04,35,11.60
2009,06,11,04,36,11.60
2009,06,11,04,37,11.60
2009,06,11,04,38,11.60
2009,06,11,04,39,11.60
2009,06,11,04,40,11.60
2009,06,11,04,41,11.60
2009,06,11,04,42,11.60
2009,06,11,04,43,11.60
2009,06,11,04,44,11.60
2009,06,11,04,45,11.60
2009,06,11,04,46,11.60
2009,06,11,04,47,11.60
2009,06,11,04,48,11.60
2009,06,11,04,49,11.60
2009,06,11,04,50,11.60
2009,06,11,04,51,11.60
2009,06,11,04,52,11.60
2009,06,11,04,53,11.60
2009,06,11,04,54,11.60
2009,06,11,04,55,11.60
2009,06,11,04,56,11.60
2009,06,11,04,57,11.60
2009,06,11,04,58,11.60
2009,06,11,04,59,11.60
2009,06,11,05,00,11.60
2009,06,11,05,01,11.60
2009,06,11,05,02,11.60
2009,06,11,05,03,11.60
2009,06,11,05,04,11.60
2009,06,11,05,05,11.60
2009,06,11,05,06,11.60
2009,06,11,05,07,11.60
2009,06,11,05,08,11.60
2009,06,11,05,09,11.60
2009,06,11,05,10,11.60
2009,06,11,05,11,11.60
2009,06,11,05,12,11.60
2009,06,11,05,13,11.60
2009,06,11,05,14,11.60
2009,06,11,05,15,11.60
2009,06,11,05,16,11.60
2009,06,11,05,17,11.60
2009,06,11,05,18,11.60
2009,06,11,05,19,11.60
2009,06,11,05,20,11.60
2009,06,11,05,21,11.60
2009,06,11,05,22,11.60
2009,06,11,05,23,11.60
2009,06,11,05,24,11.60
2009,06,11,05,25,11.60
2009,06,11,05,26,11.60
2009,06,11,05,27,11.60
2009,06,11,05,28,11.60
2009,06,11,05,29,11.60
2009,06,11,05,30,11.60
2009,06,11,05,31,11.60
2009,06,11,05,32,11.60
2009,06,11,05,33,11.60
2009,06,11,05,34,11.60
2009,06,11,05,35,11.60
2009,06,11,05,36,11.60
2009,06,11,05,37,11.60
2009,06,11,05,38,11.60
2009,06,11,05,39,11.60
2009,06,11,05,40,11.60
2009,06,11,05,41,11.60
2009,06,11,05,42,11.60
2009,06,11,05,43,11.60
2009,06,11,05,44,11.60
2009,06,11,05,45,11.60
2009,06,11,05,46,11.60
2009,06,11,05,47,11.60
2009,06,11,05,48,11.60
2009,06,11,05,49,11.60
2009,06,11,05,50,11.60
2009,06,11,05,51,11.60
2009,06,11,05,52,11.70
2009,06,11,05,53,11.70
2009,06,11,05,54,11.70
2009,06,11,05,55,11.70
2009,06,11,05,56,11.70
2009,06,11,05,57,11.70
2009,06,11,05,58,11.70
2009,06,11,05,59,11.70
2009,06,11,06,00,11.70
2009,06,11,06,01,11.70
2009,06,11,06,02,11.70
2009,06,11,06,03,11.70
2009,06,11,06,04,11.70
2009,06,11,06,05,11.70
2009,06,11,06,06,11.70
2009,06,11,06,07,11.80
2009,06,11,06,08,11.80
2009,06,11,06,09,11.80
2009,06,11,06,10,11.70
2009,06,11,06,11,11.70
2009,06,11,06,12,11.80
2009,06,11,06,13,11.80
2009,06,11,06,14,11.80
2009,06,11,06,15,11.80
2009,06,11,06,16,11.80
2009,06,11,06,17,11.70
2009,06,11,06,18,11.70
2009,06,11,06,19,11.70
2009,06,11,06,20,11.70
2009,06,11,06,21,11.70
2009,06,11,06,22,11.70
2009,06,11,06,23,11.70
2009,06,11,06,24,11.70
2009,06,11,06,25,11.70
2009,06,11,06,26,11.70
2009,06,11,06,27,11.70
2009,06,11,06,28,11.70
2009,06,11,06,29,11.70
2009,06,11,06,30,11.70
2009,06,11,06,31,11.70
2009,06,11,06,32,11.70
2009,06,11,06,33,11.70
2009,06,11,06,34,11.70
2009,06,11,06,35,11.80
2009,06,11,06,36,11.80
2009,06,11,06,37,11.80
2009,06,11,06,38,11.80
2009,06,11,06,39,11.80
2009,06,11,06,40,11.80
2009,06,11,06,41,11.80
2009,06,11,06,42,11.80
2009,06,11,06,43,11.80
2009,06,11,06,44,11.80
2009,06,11,06,45,11.80
2009,06,11,06,46,11.80
2009,06,11,06,47,11.80
2009,06,11,06,48,11.80
2009,06,11,06,49,11.80
2009,06,11,06,50,11.90
2009,06,11,06,51,11.90
2009,06,11,06,52,11.90
2009,06,11,06,53,11.90
2009,06,11,06,54,11.90
2009,06,11,06,55,11.90
2009,06,11,06,56,11.90
2009,06,11,06,57,11.90
2009,06,11,06,58,11.90
2009,06,11,06,59,12.00
2009,06,11,07,00,12.00
2009,06,11,07,01,12.00
2009,06,11,07,02,12.00
2009,06,11,07,03,12.00
2009,06,11,07,04,12.00
2009,06,11,07,05,12.00
2009,06,11,07,06,12.00
2009,06,11,07,07,12.00
2009,06,11,07,08,12.00
2009,06,11,07,09,12.00
2009,06,11,07,10,12.00
2009,06,11,07,11,11.90
2009,06,11,07,12,11.90
2009,06,11,07,13,11.90
2009,06,11,07,14,11.90
2009,06,11,07,15,12.00
2009,06,11,07,16,12.00
2009,06,11,07,17,12.00
2009,06,11,07,18,12.00
2009,06,11,07,19,12.00
2009,06,11,07,20,12.00
2009,06,11,07,21,12.00
2009,06,11,07,22,12.00
2009,06,11,07,23,12.00
2009,06,11,07,24,12.00
2009,06,11,07,25,12.00
2009,06,11,07,26,12.10
2009,06,11,07,27,12.10
2009,06,11,07,28,12.10
2009,06,11,07,29,12.10
2009,06,11,07,30,12.10
2009,06,11,07,31,12.10
2009,06,11,07,32,12.10
2009,06,11,07,33,12.10
2009,06,11,07,34,12.10
2009,06,11,07,35,12.20
2009,06,11,07,36,12.20
2009,06,11,07,37,12.20
2009,06,11,07,38,12.20
2009,06,11,07,39,12.30
2009,06,11,07,40,12.30
2009,06,11,07,41,12.30
2009,06,11,07,42,12.30
2009,06,11,07,43,12.30
2009,06,11,07,44,12.30
2009,06,11,07,45,12.30
2009,06,11,07,46,12.40
2009,06,11,07,47,12.40
2009,06,11,07,48,12.40
2009,06,11,07,49,12.40
2009,06,11,07,50,12.40
2009,06,11,07,51,12.40
2009,06,11,07,52,12.40
2009,06,11,07,53,12.40
2009,06,11,07,54,12.50
2009,06,11,07,55,12.50
2009,06,11,07,56,12.50
2009,06,11,07,57,12.50
2009,06,11,07,58,12.60
2009,06,11,07,59,12.60
2009,06,11,08,00,12.60
2009,06,11,08,01,12.60
2009,06,11,08,02,12.60
2009,06,11,08,03,12.70
2009,06,11,08,04,12.70
2009,06,11,08,05,12.70
2009,06,11,08,06,12.80
2009,06,11,08,07,12.80
2009,06,11,08,08,12.80
2009,06,11,08,09,12.80
2009,06,11,08,10,12.80
2009,06,11,08,11,12.80
2009,06,11,08,12,12.80
2009,06,11,08,13,12.70
2009,06,11,08,14,12.70
2009,06,11,08,15,12.70
2009,06,11,08,16,12.70
2009,06,11,08,17,12.80
2009,06,11,08,18,12.80
2009,06,11,08,19,12.80
2009,06,11,08,20,12.80
2009,06,11,08,21,12.80
2009,06,11,08,22,12.80
2009,06,11,08,23,12.90
2009,06,11,08,24,12.90
2009,06,11,08,25,13.00
2009,06,11,08,26,13.00
2009,06,11,08,27,13.00
2009,06,11,08,28,13.10
2009,06,11,08,29,13.10
2009,06,11,08,30,13.10
2009,06,11,08,31,13.10
2009,06,11,08,32,13.20
2009,06,11,08,33,13.20
2009,06,11,08,34,13.20
2009,06,11,08,35,13.30
2009,06,11,08,36,13.20
2009,06,11,08,37,13.20
2009,06,11,08,38,13.20
2009,06,11,08,39,13.20
2009,06,11,08,40,13.20
2009,06,11,08,41,13.20
2009,06,11,08,42,13.20
2009,06,11,08,43,13.20
2009,06,11,08,44,13.20
2009,06,11,08,45,13.20
2009,06,11,08,46,13.20
2009,06,11,08,47,13.30
2009,06,11,08,48,13.30
2009,06,11,08,49,13.30
2009,06,11,08,50,13.30
2009,06,11,08,51,13.30
2009,06,11,08,52,13.40
2009,06,11,08,53,13.50
2009,06,11,08,54,13.50
2009,06,11,08,55,13.60
2009,06,11,08,56,13.60
2009,06,11,08,57,13.60
2009,06,11,08,58,13.70
2009,06,11,08,59,13.70
2009,06,11,09,00,13.70
2009,06,11,09,01,13.70
2009,06,11,09,02,13.70
2009,06,11,09,03,13.70
2009,06,11,09,04,13.70
2009,06,11,09,05,13.70
2009,06,11,09,06,13.70
2009,06,11,09,07,13.70
2009,06,11,09,08,13.60
2009,06,11,09,09,13.60
2009,06,11,09,10,13.50
2009,06,11,09,11,13.50
2009,06,11,09,12,13.40
2009,06,11,09,13,13.40
2009,06,11,09,14,13.40
2009,06,11,09,15,13.50
2009,06,11,09,16,13.60
2009,06,11,09,17,13.60
2009,06,11,09,18,13.70
2009,06,11,09,19,13.70
2009,06,11,09,20,13.70
2009,06,11,09,21,13.70
2009,06,11,09,22,13.70
2009,06,11,09,23,13.70
2009,06,11,09,24,13.70
2009,06,11,09,25,13.70
2009,06,11,09,26,13.70
2009,06,11,09,27,13.70
2009,06,11,09,28,13.70
2009,06,11,09,29,13.80
2009,06,11,09,30,13.80
2009,06,11,09,31,13.80
2009,06,11,09,32,13.80
2009,06,11,09,33,13.80
2009,06,11,09,34,13.80
2009,06,11,09,35,13.70
2009,06,11,09,36,13.70
2009,06,11,09,37,13.70
2009,06,11,09,38,13.70
2009,06,11,09,39,13.70
2009,06,11,09,40,13.70
2009,06,11,09,41,13.80
2009,06,11,09,42,13.80
2009,06,11,09,43,13.80
2009,06,11,09,44,13.90
2009,06,11,09,45,13.90
2009,06,11,09,46,14.00
2009,06,11,09,47,14.10
2009,06,11,09,48,14.10
2009,06,11,09,49,14.10
2009,06,11,09,50,14.20
2009,06,11,09,51,14.20
2009,06,11,09,52,14.20
2009,06,11,09,53,14.30
2009,06,11,09,54,14.30
2009,06,11,09,55,14.20
2009,06,11,09,56,14.20
2009,06,11,09,57,14.20
2009,06,11,09,58,14.20
2009,06,11,09,59,14.20
2009,06,11,10,00,14.20
2009,06,11,10,01,14.30
2009,06,11,10,02,14.50
2009,06,11,10,03,14.50
2009,06,11,10,04,14.50
2009,06,11,10,05,14.50
2009,06,11,10,06,14.60
2009,06,11,10,07,14.60
2009,06,11,10,08,14.70
2009,06,11,10,09,14.80
2009,06,11,10,10,14.80
2009,06,11,10,11,14.90
2009,06,11,10,12,15.00
2009,06,11,10,13,15.00
2009,06,11,10,14,15.10
2009,06,11,10,15,15.10
2009,06,11,10,16,15.10
2009,06,11,10,17,15.10
2009,06,11,10,18,15.10
2009,06,11,10,19,15.20
2009,06,11,10,20,15.10
2009,06,11,10,21,15.00
2009,06,11,10,22,14.90
2009,06,11,10,23,14.80
2009,06,11,10,24,14.90
2009,06,11,10,25,14.90
2009,06,11,10,26,14.90
2009,06,11,10,27,14.90
2009,06,11,10,28,14.90
2009,06,11,10,29,14.90
2009,06,11,10,30,14.90
2009,06,11,10,31,14.90
2009,06,11,10,32,15.00
2009,06,11,10,33,15.10
2009,06,11,10,34,15.20
2009,06,11,10,35,15.20
2009,06,11,10,36,15.10
2009,06,11,10,37,15.00
2009,06,11,10,38,15.00
2009,06,11,10,39,15.10
2009,06,11,10,40,15.20
2009,06,11,10,41,15.20
2009,06,11,10,42,15.30
2009,06,11,10,43,15.20
2009,06,11,10,44,15.20
2009,06,11,10,45,15.10
2009,06,11,10,46,15.00
2009,06,11,10,47,15.00
2009,06,11,10,48,14.90
2009,06,11,10,49,14.80
2009,06,11,10,50,14.80
2009,06,11,10,51,14.80
2009,06,11,10,52,14.80
2009,06,11,10,53,14.80
2009,06,11,10,54,14.80
2009,06,11,10,55,14.80
2009,06,11,10,56,14.90
2009,06,11,10,57,15.00
2009,06,11,10,58,15.10
2009,06,11,10,59,15.10
2009,06,11,11,00,15.10
2009,06,11,11,01,15.10
2009,06,11,11,02,15.00
2009,06,11,11,03,15.10
2009,06,11,11,04,15.10
2009,06,11,11,05,15.10
2009,06,11,11,06,15.00
2009,06,11,11,07,15.10
2009,06,11,11,08,15.00
2009,06,11,11,09,15.00
2009,06,11,11,10,14.90
2009,06,11,11,11,14.90
2009,06,11,11,12,14.80
2009,06,11,11,13,14.80
2009,06,11,11,14,14.90
2009,06,11,11,15,15.00
2009,06,11,11,16,15.00
2009,06,11,11,17,15.10
2009,06,11,11,18,15.10
2009,06,11,11,19,15.20
2009,06,11,11,20,15.20
2009,06,11,11,21,15.20
2009,06,11,11,22,15.20
2009,06,11,11,23,15.10
2009,06,11,11,24,15.20
2009,06,11,11,25,15.20
2009,06,11,11,26,15.30
2009,06,11,11,27,15.30
2009,06,11,11,28,15.40
2009,06,11,11,29,15.50
2009,06,11,11,30,15.50
2009,06,11,11,31,15.50
2009,06,11,11,32,15.40
2009,06,11,11,33,15.30
2009,06,11,11,34,15.30
2009,06,11,11,35,15.30
2009,06,11,11,36,15.30
2009,06,11,11,37,15.30
2009,06,11,11,38,15.30
2009,06,11,11,39,15.30
2009,06,11,11,40,15.30
2009,06,11,11,41,15.30
2009,06,11,11,42,15.40
2009,06,11,11,43,15.50
2009,06,11,11,44,15.50
2009,06,11,11,45,15.60
2009,06,11,11,46,15.70
2009,06,11,11,47,15.70
2009,06,11,11,48,15.70
2009,06,11,11,49,15.70
2009,06,11,11,50,15.80
2009,06,11,11,51,15.80
2009,06,11,11,52,15.80
2009,06,11,11,53,15.90
2009,06,11,11,54,15.90
2009,06,11,11,55,16.10
2009,06,11,11,56,15.90
2009,06,11,11,57,15.90
2009,06,11,11,58,15.90
2009,06,11,11,59,15.80
2009,06,11,12,00,15.80
2009,06,11,12,01,15.90
2009,06,11,12,02,16.00
2009,06,11,12,03,16.10
2009,06,11,12,04,16.10
2009,06,11,12,05,15.90
2009,06,11,12,06,15.90
2009,06,11,12,07,15.90
2009,06,11,12,08,16.00
2009,06,11,12,09,16.10
2009,06,11,12,10,16.10
2009,06,11,12,11,16.10
2009,06,11,12,12,16.20
2009,06,11,12,13,16.20
2009,06,11,12,14,16.20
2009,06,11,12,15,16.30
2009,06,11,12,16,16.30
2009,06,11,12,17,16.30
2009,06,11,12,18,16.30
2009,06,11,12,19,16.40
2009,06,11,12,20,16.40
2009,06,11,12,21,16.40
2009,06,11,12,22,16.50
2009,06,11,12,23,16.60
2009,06,11,12,24,16.50
2009,06,11,12,25,16.40
2009,06,11,12,26,16.40
2009,06,11,12,27,16.50
2009,06,11,12,28,16.60
2009,06,11,12,29,16.70
2009,06,11,12,30,16.70
2009,06,11,12,31,16.70
2009,06,11,12,32,16.80
2009,06,11,12,33,16.80
2009,06,11,12,34,16.90
2009,06,11,12,35,16.90
2009,06,11,12,36,17.00
2009,06,11,12,37,17.00
2009,06,11,12,38,17.00
2009,06,11,12,39,16.90
2009,06,11,12,40,16.90
2009,06,11,12,41,17.00
2009,06,11,12,42,17.00
2009,06,11,12,43,17.00
2009,06,11,12,44,17.00
2009,06,11,12,45,17.00
2009,06,11,12,46,17.00
2009,06,11,12,47,17.10
2009,06,11,12,48,17.20
2009,06,11,12,49,17.40
2009,06,11,12,50,17.40
2009,06,11,12,51,17.40
2009,06,11,12,52,17.40
2009,06,11,12,53,17.40
2009,06,11,12,54,17.30
2009,06,11,12,55,17.30
2009,06,11,12,56,17.30
2009,06,11,12,57,17.30
2009,06,11,12,58,17.30
2009,06,11,12,59,17.20
2009,06,11,13,00,17.30
2009,06,11,13,01,17.30
2009,06,11,13,02,17.20
2009,06,11,13,03,17.00
2009,06,11,13,04,16.90
2009,06,11,13,05,16.80
2009,06,11,13,06,16.80
2009,06,11,13,07,16.70
2009,06,11,13,08,16.70
2009,06,11,13,09,16.70
2009,06,11,13,10,16.60
2009,06,11,13,11,16.50
2009,06,11,13,12,16.40
2009,06,11,13,13,16.40
2009,06,11,13,14,16.40
2009,06,11,13,15,16.40
2009,06,11,13,16,16.40
2009,06,11,13,17,16.50
2009,06,11,13,18,16.60
2009,06,11,13,19,16.70
2009,06,11,13,20,16.70
2009,06,11,13,21,16.60
2009,06,11,13,22,16.60
2009,06,11,13,23,16.60
2009,06,11,13,24,16.60
2009,06,11,13,25,16.50
2009,06,11,13,26,16.40
2009,06,11,13,27,16.30
2009,06,11,13,28,16.40
2009,06,11,13,29,16.40
2009,06,11,13,30,16.30
2009,06,11,13,31,16.30
2009,06,11,13,32,16.30
2009,06,11,13,33,16.30
2009,06,11,13,34,16.40
2009,06,11,13,35,16.40
2009,06,11,13,36,16.40
2009,06,11,13,37,16.40
2009,06,11,13,38,16.40
2009,06,11,13,39,16.40
2009,06,11,13,40,16.40
2009,06,11,13,41,16.40
2009,06,11,13,42,16.40
2009,06,11,13,43,16.60
2009,06,11,13,44,16.60
2009,06,11,13,45,16.60
2009,06,11,13,46,16.60
2009,06,11,13,47,16.60
2009,06,11,13,48,16.60
2009,06,11,13,49,16.40
2009,06,11,13,50,16.40
2009,06,11,13,51,16.40
2009,06,11,13,52,16.40
2009,06,11,13,53,16.50
2009,06,11,13,54,16.60
2009,06,11,13,55,16.70
2009,06,11,13,56,16.70
2009,06,11,13,57,16.70
2009,06,11,13,58,16.80
2009,06,11,13,59,16.80
2009,06,11,14,00,16.80
2009,06,11,14,01,16.90
2009,06,11,14,02,17.00
2009,06,11,14,03,17.10
2009,06,11,14,04,17.30
2009,06,11,14,05,17.30
2009,06,11,14,06,17.30
2009,06,11,14,07,17.30
2009,06,11,14,08,17.30
2009,06,11,14,09,17.30
2009,06,11,14,10,17.30
2009,06,11,14,11,17.40
2009,06,11,14,12,17.50
2009,06,11,14,13,17.50
2009,06,11,14,14,17.50
2009,06,11,14,15,17.60
2009,06,11,14,16,17.70
2009,06,11,14,17,17.70
2009,06,11,14,18,17.80
2009,06,11,14,19,17.90
2009,06,11,14,20,18.20
2009,06,11,14,21,18.30
2009,06,11,14,22,18.30
2009,06,11,14,23,18.30
2009,06,11,14,24,18.40
2009,06,11,14,25,18.50
2009,06,11,14,26,18.60
2009,06,11,14,27,18.50
2009,06,11,14,28,18.50
2009,06,11,14,29,18.50
2009,06,11,14,30,18.50
2009,06,11,14,31,18.60
2009,06,11,14,32,18.60
2009,06,11,14,33,18.50
2009,06,11,14,34,18.40
2009,06,11,14,35,18.30
2009,06,11,14,36,18.40
2009,06,11,14,37,18.40
2009,06,11,14,38,18.50
2009,06,11,14,39,18.50
2009,06,11,14,40,18.40
2009,06,11,14,41,18.40
2009,06,11,14,42,18.50
2009,06,11,14,43,18.50
2009,06,11,14,44,18.60
2009,06,11,14,45,18.60
2009,06,11,14,46,18.50
2009,06,11,14,47,18.40
2009,06,11,14,48,18.30
2009,06,11,14,49,18.30
2009,06,11,14,50,18.30
2009,06,11,14,51,18.20
2009,06,11,14,52,18.10
2009,06,11,14,53,18.00
2009,06,11,14,54,18.00
2009,06,11,14,55,18.10
2009,06,11,14,56,18.20
2009,06,11,14,57,18.20
2009,06,11,14,58,18.30
2009,06,11,14,59,18.30
2009,06,11,15,00,18.50
2009,06,11,15,01,18.40
2009,06,11,15,02,18.40
2009,06,11,15,03,18.40
2009,06,11,15,04,18.40
2009,06,11,15,05,18.30
2009,06,11,15,06,18.40
2009,06,11,15,07,18.50
2009,06,11,15,08,18.50
2009,06,11,15,09,18.50
2009,06,11,15,10,18.60
2009,06,11,15,11,18.60
2009,06,11,15,12,18.50
2009,06,11,15,13,18.50
2009,06,11,15,14,18.50
2009,06,11,15,15,18.50
2009,06,11,15,16,18.40
2009,06,11,15,17,18.40
2009,06,11,15,18,18.50
2009,06,11,15,19,18.50
2009,06,11,15,20,18.50
2009,06,11,15,21,18.50
2009,06,11,15,22,18.50
2009,06,11,15,23,18.60
2009,06,11,15,24,18.70
2009,06,11,15,25,18.70
2009,06,11,15,26,18.70
2009,06,11,15,27,18.60
2009,06,11,15,28,18.60
2009,06,11,15,29,18.70
2009,06,11,15,30,18.70
2009,06,11,15,31,18.70
2009,06,11,15,32,18.60
2009,06,11,15,33,18.50
2009,06,11,15,34,18.50
2009,06,11,15,35,18.50
2009,06,11,15,36,18.50
2009,06,11,15,37,18.40
2009,06,11,15,38,18.40
2009,06,11,15,39,18.40
2009,06,11,15,40,18.30
2009,06,11,15,41,18.30
2009,06,11,15,42,18.40
2009,06,11,15,43,18.40
2009,06,11,15,44,18.30
2009,06,11,15,45,18.30
2009,06,11,15,46,18.20
2009,06,11,15,47,18.30
2009,06,11,15,48,18.40
2009,06,11,15,49,18.50
2009,06,11,15,50,18.60
2009,06,11,15,51,18.60
2009,06,11,15,52,18.60
2009,06,11,15,53,18.70
2009,06,11,15,54,18.80
2009,06,11,15,55,18.80
2009,06,11,15,56,18.80
2009,06,11,15,57,18.80
2009,06,11,15,58,18.70
2009,06,11,15,59,18.80
2009,06,11,16,00,18.80
2009,06,11,16,01,18.90
2009,06,11,16,02,18.80
2009,06,11,16,03,18.80
2009,06,11,16,04,18.70
2009,06,11,16,05,18.60
2009,06,11,16,06,18.50
2009,06,11,16,07,18.50
2009,06,11,16,08,18.50
2009,06,11,16,09,18.50
2009,06,11,16,10,18.40
2009,06,11,16,11,18.40
2009,06,11,16,12,18.20
2009,06,11,16,13,18.10
2009,06,11,16,14,17.90
2009,06,11,16,15,17.90
2009,06,11,16,16,17.90
2009,06,11,16,17,17.90
2009,06,11,16,18,17.90
2009,06,11,16,19,17.90
2009,06,11,16,20,17.90
2009,06,11,16,21,17.90
2009,06,11,16,22,18.00
2009,06,11,16,23,18.10
2009,06,11,16,24,18.20
2009,06,11,16,25,18.20
2009,06,11,16,26,18.10
2009,06,11,16,27,18.10
2009,06,11,16,28,18.00
2009,06,11,16,29,18.00
2009,06,11,16,30,17.90
2009,06,11,16,31,17.90
2009,06,11,16,32,18.00
2009,06,11,16,33,18.10
2009,06,11,16,34,18.20
2009,06,11,16,35,18.20
2009,06,11,16,36,18.30
2009,06,11,16,37,18.30
2009,06,11,16,38,18.30
2009,06,11,16,39,18.20
2009,06,11,16,40,18.20
2009,06,11,16,41,18.20
2009,06,11,16,42,18.00
2009,06,11,16,43,17.90
2009,06,11,16,44,17.90
2009,06,11,16,45,17.80
2009,06,11,16,46,17.70
2009,06,11,16,47,17.70
2009,06,11,16,48,17.60
2009,06,11,16,49,17.60
2009,06,11,16,50,17.60
2009,06,11,16,51,17.60
2009,06,11,16,52,17.70
2009,06,11,16,53,17.70
2009,06,11,16,54,17.80
2009,06,11,16,55,17.80
2009,06,11,16,56,17.70
2009,06,11,16,57,17.70
2009,06,11,16,58,17.80
2009,06,11,16,59,17.90
2009,06,11,17,00,17.80
2009,06,11,17,01,17.70
2009,06,11,17,02,17.60
2009,06,11,17,03,17.70
2009,06,11,17,04,17.70
2009,06,11,17,05,17.80
2009,06,11,17,06,17.70
2009,06,11,17,07,17.60
2009,06,11,17,08,17.50
2009,06,11,17,09,17.50
2009,06,11,17,10,17.40
2009,06,11,17,11,17.50
2009,06,11,17,12,17.40
2009,06,11,17,13,17.40
2009,06,11,17,14,17.40
2009,06,11,17,15,17.50
2009,06,11,17,16,17.50
2009,06,11,17,17,17.60
2009,06,11,17,18,17.60
2009,06,11,17,19,17.60